Flag for U.S.A. Weather past 2 weeks in Clarksville, Tennessee, U.S.A.

Now
23 °F

Sunny.


Feels Like: 18 °F
Forecast: 3 / 33 °F
Wind: 3 mph from Northeast

Location: Outlaw Field

Current Time: Mar 6, 2015 at 11:45:15 AM

Latest Report: Mar 6, 2015 at 10:52 AM


Visibility: 10 mi

Pressure: 30.61 "Hg

Humidity: 60%

Dew point: 11 °F

Location of ClarksvilleLocation

Historic Weather in Clarksville — Graph

°F

Clarksville temperature yesterday

Maximum temperature yesterday: 26 °F (at 1:52 PM)
Minimum temperature yesterday: 8 °F (at 11:52 PM)
Average temperature yesterday: 19 °F

Past Weeks' High & Low Weather Summary

 TemperatureHumidityPressure
High64 °F (Mar 3, 2:52 PM)100% (Mar 1, 1:52 PM)30.66 "Hg (Mar 1, 1:52 PM)
Low1 °F (Mar 6, 6:52 AM)40% (Feb 19, 4:52 PM)29.82 "Hg (Feb 21, 11:52 AM)
Average29 °F75%30.27 "Hg
* Reported Feb 19 10:52 AM — Mar 6 10:52 AM, Clarksville, Weather by CustomWeather, © 2015

Note: Actual official high and low records may vary slightly from our data, if they occured in-between our weather recording intervals... More about our weather records

Advertising

Clarksville weather history for previous 24 hours

 ConditionsComfort  
Time TempWeatherWind HumidityBarometerVisibility
10:52 AM
Fri, Mar 6
23 °FSunny.3 mph60%30.61 "Hg10 mi
9:52 AM18 °FSunny.No wind65%30.63 "Hg10 mi
8:52 AM9 °FLight snow. Sunny.No wind88%30.64 "Hg9 mi
7:52 AM5 °FSunny.No wind100%30.62 "Hg9 mi
6:52 AM1 °FSunny.No wind87%30.61 "Hg10 mi
5:52 AM2 °FSunny.3 mph83%30.60 "Hg10 mi
4:52 AM2 °FClear.6 mph88%30.60 "Hg9 mi
3:52 AM3 °FClear.3 mph87%30.58 "Hg9 mi
2:52 AM5 °FClear.No wind87%30.58 "Hg7 mi
1:52 AM5 °FClear.5 mph87%30.60 "Hg10 mi
12:52 AM7 °FClear.5 mph83%30.60 "Hg10 mi
11:52 PM
Thu, Mar 5
8 °FClear.3 mph79%30.60 "Hg10 mi
10:52 PM12 °FClear.6 mph70%30.61 "Hg10 mi
9:52 PM11 °FClear.9 mph70%30.61 "Hg10 mi
8:52 PM13 °FClear.7 mph67%30.59 "Hg10 mi
7:52 PM13 °FClear.10 mph64%30.59 "Hg10 mi
6:52 PM17 °FClear.12 mph56%30.58 "Hg10 mi
5:52 PM19 °FClear.10 mph57%30.55 "Hg10 mi
4:52 PM23 °FClear.13 mph53%30.53 "Hg10 mi
3:52 PM25 °FSunny.15 mph50%30.51 "Hg10 mi
2:52 PM26 °FSunny.16 mph50%30.48 "Hg10 mi
1:52 PM26 °FSunny.14 mph55%30.47 "Hg10 mi
12:52 PM25 °FPartly sunny.13 mph60%30.47 "Hg10 mi
11:52 AM23 °FOvercast.15 mph65%30.47 "Hg10 mi
Weather by CustomWeather, © 2015

See weather overviewHow to use our weather pages